STARLINK-32511, 61727

Orbit data source: Space-Track

STARLINK-32511, 61727 is a payload satellite owned by SpaceX/Seattle (US) in LEO that was launched on Wed, 30 Oct 2024 UTC via an FALCON 9 launch vehicle from the Air Force Eastern Test Range (AFETR). Payloads include a variety of satellites, spacecraft, and rockets equipped with specific instruments for various scientific and technological missions. These include communications satellites like Starlink; space stations such as the ISS; scientific satellites like the Hubble; Earth observation satellites from companies like Planet Labs, Umbra, and HawkEye 360; GPS; miniature CubeSats for education and research; and military/defense satellites.

Loading next visibility...
STARLINK-32511 details
Identifier
61727, 2024-196W
Orbit
LEO
Last TLE update12 hours ago
Origin
Flag of USSpaceX/Seattle (US)
ManufacturerSpaceX/Seattle
MissionOperational spacecraft
Bus & MotorSTARLINK V2M, Unknown motor
Mass730 kg wet, ~700 kg dry
Launch date (UTC)
2024-10-30 (2 months ago)
Launch vehicle
FALCON 9
Launch site
Air Force Eastern Test Range (AFETR)
Object type
Payload
Rocket body
Debris
Shape & HBRUnknown
Radar Cross SectionLarge (>1 m²)

Expand to show TLE details & history

TLE from 12 hours ago
0 STARLINK-32511
1 61727U 24196W   24361.27450910  .00000313  00000-0  17808-4 0  9994
2 61727  53.1628 339.8391 0001289  94.1475 265.9677 15.39609555 10007
Epoch: 2024-12-26T06:35Z
Definitive object data (Epoch: 2024-12-26T06:35:17.586Z)
Latitude-0.00003°
Longitude145.75955°
Altitude448.229 km
Speed7.644 km/s
True Right ascension22h 39m 21s
True Declination0° 00' 00"
Sunlit
Object was in daylight at TLE epoch
Visualization TLE readout
Latitude-30.71266°
Longitude117.07918°
Altitude457.304 km
Speed7.638 km/s
Apparent Right ascension00h 29m 34s
Apparent Declination-64° 40' 01"
Sunlit
Object is in daylight
Visualization observer readout
Local Sidereal Time18:15:26
Azimuth147.729° SSE
Elevation-36.883°
Doppler factor1
Orbital elements
Apogee altitude448.4 km
Perigee altitude446.64 km
Semi-major axis6,825.657 km
Eccentricity0.0001289
Inclination53.1628°
RAAN339.8391°
Arg. of periapsis94.1475°
True anomaly265.95297°
Mean anomaly265.9677°
Eccentric anomaly265.96033°
Mean motion3.84881 °/min
BSTAR0.000017808
Orbital period93.54 mins
Loading maneuver chart data...
Loading historical data...
Loading historical data...
Loading historical data...
Loading historical data...
Loading historical data...
Loading historical data...
Loading historical data...

STARLINK-32511 Visibility forecast

Observer location: undefined°, undefined

Span
Click to sort rows by Start time (UTC) header in descending order
Start Az.
Max El. time (UTC)
Max El. Az.
Max El.
End time (UTC)
End Az.
6 mins2024-12-27 01:27:51.864Z224.888° SW2024-12-27 01:30:51.864Z83.395° E43.892°2024-12-27 01:33:51.864Z52.038° ENE
5 mins2024-12-27 08:00:51.864Z319.992° NNW2024-12-27 08:02:51.864Z7.124° NNE40.512°2024-12-27 08:05:51.864Z117.236° SE
|